Weather History for Goldsboro, NC

Change the Weather History Date:

Wednesday, October 3, 2012

  Actual Average Record
Temperature  
Mean Temperature 80 °F -  
Max Temperature 84 °F 76 °F 91 °F (2002)
Min Temperature 75 °F 56 °F 42 °F (2003)
Cooling Degree Days 14    
Growing Degree Days 30 (Base 50)    
Moisture  
Dew Point 75 °F    
Average Humidity 91    
Maximum Humidity 100    
Minimum Humidity 71    
Precipitation  
Precipitation 0.00 in - - ()
Sea Level Pressure  
Sea Level Pressure 30.06 in    
Wind  
Wind Speed 5 mph (South)    
Max Wind Speed 8 mph    
Max Gust Speed -    
Visibility 10 miles    
Events Rain    
Averages and records for this station are not official NWS values.
T = Trace of Precipitation, MM = Missing Value Source: NWS Daily Summary

Daily Weather History Graph

Daily Weather History Graph

Search for Another Location

Airport:

Trip Planner

Search our weather history database for the weather conditions in past years. The results will help you decide how hot, cold, wet, or windy it might be!

Date:

Astronomy

Oct. 03, 2012 Rise Set
Actual Time 7:08 AM EDT 6:52 PM EDT
Civil Twilight 6:43 AM EDT 7:17 PM EDT
Nautical Twilight 6:13 AM EDT 7:46 PM EDT
Astronomical Twilight 5:44 AM EDT 8:16 PM EDT
Moon 8:52 PM EDT (10/3) 10:21 AM EDT (10/3)
Length of Visible Light 12h 34m
Length of Day
11h 43m
Waning Gibbous, 89% of the Moon is Illuminated
Oct 3
Waning Gibbous
Oct 8
Last Quarter
Oct 15
New
Oct 21
First Quarter
Oct 29
Full

Hourly Weather History & Observations

Time (EDT) Temp. Heat Index Dew Point Humidity Pressure Visibility Wind Dir Wind Speed Gust Speed Precip Events Conditions
12:01 AM 77.0 °F - 73.4 °F 89% 29.98 in 10.0 mi South 6.9 mph - N/A   Mostly Cloudy
12:09 AM 77.0 °F - 73.4 °F 89% 29.98 in 10.0 mi South 8.1 mph - N/A   Overcast
12:48 AM 77.0 °F - 73.4 °F 89% 29.99 in 10.0 mi South 8.1 mph - N/A   Overcast
12:55 AM 76.6 °F - 74.1 °F 92% 29.99 in 10.0 mi South 8.1 mph - N/A   Overcast
1:55 AM 77.0 °F - 74.3 °F 91% 30.01 in 10.0 mi Variable 6.9 mph - N/A   Overcast
2:55 AM 77.0 °F - 74.5 °F 92% 30.01 in 10.0 mi South 4.6 mph - N/A   Overcast
3:10 AM 77.0 °F - 75.2 °F 94% 30.01 in 10.0 mi South 4.6 mph - N/A   Mostly Cloudy
3:18 AM 77.0 °F - 75.2 °F 94% 30.00 in 10.0 mi South 3.5 mph - N/A   Mostly Cloudy
3:41 AM 77.0 °F - 75.2 °F 94% 30.01 in 10.0 mi South 3.5 mph - N/A Rain Light Rain
3:55 AM 76.6 °F - 74.8 °F 94% 30.01 in 5.0 mi Variable 3.5 mph - 0.00 in Rain Light Rain
4:01 AM 77.0 °F - 75.2 °F 94% 30.01 in 5.0 mi South 3.5 mph - N/A Rain Light Rain
4:08 AM 77.0 °F - 75.2 °F 94% 30.01 in 10.0 mi South 3.5 mph - N/A Rain Light Rain
4:15 AM 77.0 °F - 75.2 °F 94% 30.01 in 10.0 mi South 3.5 mph - N/A   Mostly Cloudy
4:19 AM 77.0 °F - 75.2 °F 94% 30.02 in 10.0 mi South 3.5 mph - N/A   Mostly Cloudy
4:45 AM 75.2 °F - 75.2 °F 100% 30.02 in 10.0 mi Calm Calm - N/A   Mostly Cloudy
4:55 AM 75.9 °F - 75.0 °F 97% 30.02 in 10.0 mi Calm Calm - 0.00 in   Mostly Cloudy
4:58 AM 75.2 °F - 75.2 °F 100% 30.02 in 10.0 mi Calm Calm - N/A   Mostly Cloudy
5:38 AM 75.2 °F - 75.2 °F 100% 30.04 in 10.0 mi South 3.5 mph - N/A   Mostly Cloudy
5:43 AM 75.2 °F - 75.2 °F 100% 30.04 in 10.0 mi South 3.5 mph - N/A   Mostly Cloudy
5:55 AM 76.1 °F - 75.2 °F 97% 30.04 in 10.0 mi South 3.5 mph - N/A   Overcast
7:09 AM 75.2 °F - 75.2 °F 100% 30.05 in 10.0 mi SSW 4.6 mph - N/A   Mostly Cloudy
7:24 AM 75.2 °F - 75.2 °F 100% 30.06 in 10.0 mi SSW 4.6 mph - N/A   Mostly Cloudy
7:28 AM 75.2 °F - 75.2 °F 100% 30.06 in 10.0 mi SSW 3.5 mph - N/A   Mostly Cloudy
7:55 AM 75.7 °F - 74.5 °F 96% 30.07 in 10.0 mi South 3.5 mph - N/A   Scattered Clouds
8:55 AM 76.1 °F - 74.7 °F 95% 30.09 in 10.0 mi South 4.6 mph - N/A   Partly Cloudy
9:55 AM 77.0 °F - 74.3 °F 91% 30.10 in 10.0 mi Variable 3.5 mph - N/A   Scattered Clouds
10:55 AM 79.0 °F - 74.8 °F 87% 30.11 in 10.0 mi Variable 3.5 mph - N/A   Scattered Clouds
11:01 AM 78.8 °F - 75.2 °F 89% 30.11 in 10.0 mi SSW 4.6 mph - N/A   Mostly Cloudy
11:55 AM 80.4 °F 85.6 °F 74.8 °F 83% 30.11 in 10.0 mi South 5.8 mph - N/A   Mostly Cloudy
12:16 PM 80.6 °F 86.2 °F 75.2 °F 84% 30.11 in 10.0 mi South 4.6 mph - N/A   Mostly Cloudy
12:55 PM 81.9 °F 88.2 °F 74.7 °F 79% 30.11 in 10.0 mi Calm Calm - N/A   Mostly Cloudy
1:19 PM 82.4 °F 89.5 °F 75.2 °F 79% 30.10 in 10.0 mi South 5.8 mph - N/A   Mostly Cloudy
1:55 PM 82.9 °F 89.7 °F 74.3 °F 75% 30.08 in 10.0 mi SSW 6.9 mph - N/A   Scattered Clouds
2:55 PM 83.7 °F 90.7 °F 74.3 °F 73% 30.07 in 10.0 mi WSW 6.9 mph - N/A   Scattered Clouds
3:55 PM 84.6 °F 92.4 °F 74.7 °F 72% 30.07 in 10.0 mi South 5.8 mph - N/A   Scattered Clouds
4:55 PM 84.2 °F 93.4 °F 76.1 °F 77% 30.07 in 10.0 mi SSE 5.8 mph - N/A   Clear
5:55 PM 83.5 °F 89.7 °F 73.2 °F 71% 30.08 in 10.0 mi South 8.1 mph - N/A   Partly Cloudy
6:55 PM 80.1 °F 85.2 °F 75.4 °F 86% 30.10 in 10.0 mi SSE 4.6 mph - N/A   Mostly Cloudy
7:55 PM 78.3 °F - 75.4 °F 91% 30.11 in 10.0 mi SSE 4.6 mph - N/A   Clear
8:55 PM 76.8 °F - 75.2 °F 95% 30.12 in 10.0 mi South 3.5 mph - N/A   Clear
9:55 PM 76.1 °F - 75.2 °F 97% 30.14 in 10.0 mi SSE 3.5 mph - N/A   Mostly Cloudy
10:55 PM 76.1 °F - 74.3 °F 94% 30.16 in 10.0 mi South 5.8 mph - N/A   Overcast
11:55 PM 75.4 °F - 72.7 °F 91% 30.17 in 10.0 mi SSW 6.9 mph - N/A   Overcast